Regional Weather Roundup
Issued by NWS

Home | Current Version | Previous Version | Graphics & Text | Print | Product List | Glossary Off
Versions: 1 2 3 4 5 6 7 8 9 10 11 12 13 14 15 16 17 18 19 20 21 22 23 24 25 26 27 28 29 30 31 32 33 34 35 36 37 38 39 40 41 42 43 44 45 46 47 48 49 50

000
ASUS43 KTOP 131308
RWRKS

WEATHER ROUNDUP FOR KANSAS
NATIONAL WEATHER SERVICE GOODLAND KS
800 AM CDT SUN JUL 13 2014

NOTE:  "FAIR" INDICATES FEW OR NO CLOUDS BELOW 12,000 FEET WITH NO
SIGNIFICANT WEATHER AND/OR OBSTRUCTIONS TO VISIBILITY.

KSZ001>006-013>018-027>032-041>047-131400-
NORTHWEST KANSAS

CITY           SKY/WX    TMP DP  RH WIND       PRES   REMARKS
GOODLAND       CLOUDY    66  62  87 N6        30.21F
HAYS           PTSUNNY   72  63  73 N16       30.13S
HILL CITY      PTSUNNY   73  67  81 N10       30.14F
RUSSELL        MOSUNNY   72  66  81 N14       30.10R
$$

KSZ061>065-074>080-084>089-131400-
SOUTHWEST KANSAS

CITY           SKY/WX    TMP DP  RH WIND       PRES   REMARKS
DODGE CITY     MOSUNNY   73  65  75 N15       30.12F
ELKHART          N/A     67  61  81 NW5         N/A
GARDEN CITY    CLOUDY    70  64  81 NW3       30.16R
GREAT BEND     CLOUDY    72  64  78 N16       30.09R
LIBERAL        PTSUNNY   70  61  73 NW7       30.19F
PRATT          PTSUNNY   72  68  88 N14       30.09S
$$

KSZ066>073-081>083-090>101-131400-
SOUTHEAST KANSAS

CITY           SKY/WX    TMP DP  RH WIND       PRES   REMARKS
CHANUTE        SUNNY     72  63  73 E5        30.04S
COFFEYVILLE    SUNNY     75  65  70 S9        30.02F
HUTCHINSON     LGT RAIN  74  69  85 N16G29    30.02F
MEDICINE LODGE   N/A     76  71  85 N13       30.04S
NEWTON         MOSUNNY   73  55  53 W9        30.06R
PARSONS        MOSUNNY   74  64  71 S6        30.04R
WICHITA INTL   PTSUNNY   74  60  61 W6        30.01R
WICHITA JABRA  PTSUNNY   75  60  59 SW7       30.00R
WICHITA MCCONL SUNNY     74  60  62 SW8       30.01R
WINFIELD       SUNNY     73  64  73 S5        30.03S
$$

KSZ007>012-019>026-033>040-048>060-102>105-131400-
NORTHEAST KANSAS

CITY           SKY/WX    TMP DP  RH WIND       PRES   REMARKS
CONCORDIA      PTSUNNY   70  69  97 N7        30.09R
EMPORIA        PTSUNNY   74  67  78 E6        30.02R
LAWRENCE       CLOUDY    72  70  93 S3        30.01R
MANHATTAN      PTSUNNY   73  70  90 N5        30.03S
MARYSVILLE     CLOUDY    70  70 100 N6        30.06R FOG
OLATHE IND     LGT RAIN  72  69  90 E9        30.02F
OLATHE EXE     LGT RAIN  72  69  90 SE8       30.02F
SALINA         CLOUDY    74  70  87 NW12      30.06R
TOPEKA BILLARD CLOUDY    73  71  93 N5        30.02R
TOPEKA FORBES  CLOUDY    73  70  90 E6        30.01R
$$



USA.gov is the U.S. government's official web portal to all federal, state and local government web resources and services.